Home   Weather   Sola   Past weeks

Flag for Norway Past Weather in Sola, Norway — Yesterday and Last 2 Weeks

Now
46 °F

Drizzle. Dense fog.


Feels Like: 44 °F
Forecast: 45 / 48 °F
Wind: 5 mph from West

Location: Stavanger / Sola

Current Time: Dec 9, 2016 at 9:04:15 am

Latest Report: Dec 9, 2016 at 8:00 am


Visibility: 2 mi

Pressure: 30.00 "Hg

Humidity: 97%

Dew Point: 45 °F

Location of SolaLocation

Past Weather in Sola — Graph

°F

Sola Temperature Yesterday

Maximum temperature yesterday: 50 °F (at 6:00 am)
Minimum temperature yesterday: 41 °F (at 8:00 pm)
Average temperature yesterday: 47 °F

High & Low Weather Summary for the Past Weeks

 TemperatureHumidityPressure
High50 °F (Dec 8, 6:00 am)98% (Nov 26, 3:00 am)30.53 "Hg (Nov 26, 3:00 am)
Low25 °F (Dec 3, 4:00 am)64% (Nov 27, 2:00 pm)29.76 "Hg (Dec 8, 1:00 am)
Average41 °F86%30.18 "Hg
* Reported Nov 24 7:00 am — Dec 9 7:00 am, Sola, Weather by CustomWeather, © 2016

Note: Actual official high and low records may vary slightly from our data, if they occured in-between our weather recording intervals... More about our weather records

Advertising

Sola Weather History for the Previous 24 Hours

Scroll right to see more
 ConditionsComfort  
Time TempWeatherWind HumidityBarometerVisibility
7:00 am
Fri, Dec 9
46 °FDrizzle. Dense fog.6 mph96%30.00 "Hg2 mi
6:00 am47 °FPassing clouds.5 mph91%29.99 "Hg5 mi
5:00 am47 °FPassing clouds.5 mph91%29.98 "Hg5 mi
4:00 am47 °FLight rain. Passing clouds.6 mph92%29.98 "Hg3 mi
3:00 am47 °FPassing clouds.5 mph93%29.99 "Hg5 mi
2:00 am46 °FOvercast.5 mph95%29.98 "Hg4 mi
1:00 am45 °FOvercast.2 mph96%30.00 "Hg5 mi
11:00 pm
Thu, Dec 8
43 °FPassing clouds.1 mph97%30.01 "Hg4 mi
10:00 pm42 °FOvercast.3 mph97%30.00 "Hg4 mi
8:00 pm41 °FFog.1 mph94%29.97 "Hg3 mi
7:00 pm44 °FPassing clouds.1 mph93%29.96 "Hg4 mi
6:00 pm46 °FOvercast.1 mph92%29.97 "Hg4 mi
5:00 pm47 °FPassing clouds.1 mph91%29.98 "Hg4 mi
4:00 pm47 °FPassing clouds.3 mph90%29.98 "Hg5 mi
3:00 pm47 °FScattered clouds.6 mph90%29.97 "Hg4 mi
2:00 pm48 °FPartly sunny.6 mph90%29.97 "Hg4 mi
1:00 pm48 °FOvercast.7 mph89%29.97 "Hg4 mi
12:00 pm48 °FPartly sunny.6 mph89%29.97 "Hg4 mi
11:00 am49 °FScattered clouds.7 mph89%29.94 "Hg4 mi
10:00 am49 °FOvercast.8 mph87%29.92 "Hg4 mi
9:00 am49 °FOvercast.8 mph87%29.89 "Hg4 mi
Weather by CustomWeather, © 2016

See weather overviewHow to use our weather pages